This is the latest recevied weather packets stored in our database for station/object KE6YLF. If no packets are shown the sender has not sent any weather packets the latest 10 day(s).
| Time | Temp. | Humidity | Pressure | Rain* | Wind** | Luminosity | Snow |
|---|---|---|---|---|---|---|---|
| 1778300932 | 29.44° C | 26% | 1074.1 hPa | 0 mm | - | - | - |
| 1778300629 | 30° C | 27% | 1074.1 hPa | 0 mm | - | - | - |
| 1778300326 | 30° C | 27% | 1074 hPa | 0 mm | - | - | - |
| 1778300023 | 30° C | 27% | 1073.9 hPa | 0 mm | - | - | - |
| 1778299721 | 30° C | 28% | 1074 hPa | 0 mm | - | - | - |
| 1778299418 | 30° C | 28% | 1073.8 hPa | 0 mm | - | - | - |
| 1778299115 | 30° C | 28% | 1073.8 hPa | 0 mm | - | - | - |
| 1778298812 | 30° C | 28% | 1073.8 hPa | 0 mm | - | - | - |
| 1778298508 | 30° C | 29% | 1073.8 hPa | 0 mm | - | - | - |
| 1778298206 | 30.56° C | 29% | 1073.6 hPa | 0 mm | - | - | - |
| 1778297903 | 30.56° C | 28% | 1073.6 hPa | 0 mm | - | - | - |
| 1778297600 | 30.56° C | 28% | 1073.4 hPa | 0 mm | - | - | - |
| 1778297297 | 30.56° C | 28% | 1073.4 hPa | 0 mm | - | - | - |
| 1778296994 | 31.11° C | 26% | 1073.5 hPa | 0 mm | - | - | - |
| 1778296692 | 31.11° C | 24% | 1073.3 hPa | 0 mm | - | - | - |
| 1778296389 | 31.67° C | 22% | 1073.2 hPa | 0 mm | - | - | - |
| 1778296087 | 31.67° C | 19% | 1073.4 hPa | 0 mm | - | - | - |
| 1778295784 | 31.67° C | 19% | 1073.2 hPa | 0 mm | - | - | - |
| 1778295481 | 32.22° C | 19% | 1073.2 hPa | 0 mm | - | - | - |
| 1778295176 | 31.67° C | 19% | 1073.3 hPa | 0 mm | - | - | - |
| 1778294872 | 32.22° C | 19% | 1073.3 hPa | 0 mm | - | - | - |
| 1778294568 | 32.22° C | 19% | 1073.1 hPa | 0 mm | - | - | - |
| 1778294265 | 32.22° C | 19% | 1073.3 hPa | 0 mm | - | - | - |
| 1778293963 | 32.22° C | 19% | 1073 hPa | 0 mm | - | - | - |
| 1778293658 | 32.22° C | 19% | 1073.1 hPa | 0 mm | - | - | - |
* Rain latest hour (hover to see other rain measurements)
** Current wind speed in m/s (hover to see current wind gust speed)